カタログに戻る

CZ-4C DEB

運用中SSO
NORAD 43411·DEBRIS·🇨🇳 China

打ち上げ Sep 23, 2013 から Taiyuan Satellite Launch Center

Loading…

次のパス (今後24時間)

TLE

最新Source: Space-Track

元期: Sep 13, 2026, 22:53 UTC

1 43411U 13052F   26256.95409225  .00000041  00000-0  34331-4 0  9994
2 43411  98.5309 337.1280 0005854 128.7044 231.4661 14.27193833667059

AllMySatでCZ-4C DEBをリアルタイム追跡

Download on the App Store